This is the latest recevied weather packets stored in our database for station/object SR2ATJ-13. If no packets are shown the sender has not sent any weather packets the latest 10 day(s).
| Time | Temp. | Humidity | Pressure | Rain* | Wind** | Luminosity | Snow |
|---|---|---|---|---|---|---|---|
| 1777608904 | 5° C | 65% | 1027.5 hPa | - | - | - | - |
| 1777608303 | 4.44° C | 66% | 1027.5 hPa | - | - | - | - |
| 1777607703 | 3.89° C | 65% | 1027.4 hPa | - | - | - | - |
| 1777607103 | 3.89° C | 63% | 1027.4 hPa | - | - | - | - |
| 1777606504 | 3.89° C | 63% | 1027.5 hPa | - | - | - | - |
| 1777605304 | 4.44° C | 62% | 1027.4 hPa | - | - | - | - |
| 1777604703 | 4.44° C | 62% | 1027.3 hPa | - | - | - | - |
| 1777604103 | 5° C | 61% | 1027.4 hPa | - | - | - | - |
| 1777603504 | 5° C | 61% | 1027.5 hPa | - | - | - | - |
| 1777602903 | 5° C | 61% | 1027.5 hPa | - | - | - | - |
| 1777601703 | 5.56° C | 60% | 1027.4 hPa | - | - | - | - |
| 1777601105 | 5.56° C | 59% | 1027.4 hPa | - | - | - | - |
| 1777600503 | 5.56° C | 59% | 1027.4 hPa | - | - | - | - |
| 1777599904 | 5.56° C | 58% | 1027.4 hPa | - | - | - | - |
| 1777599303 | 5.56° C | 58% | 1027.5 hPa | - | - | - | - |
| 1777598703 | 5.56° C | 58% | 1027.4 hPa | - | - | - | - |
| 1777598103 | 5.56° C | 57% | 1027.3 hPa | - | - | - | - |
| 1777597503 | 6.11° C | 56% | 1027.4 hPa | - | - | - | - |
| 1777596904 | 6.11° C | 56% | 1027.4 hPa | - | - | - | - |
| 1777596304 | 6.11° C | 57% | 1027.4 hPa | - | - | - | - |
| 1777595103 | 6.67° C | 54% | 1027.2 hPa | - | - | - | - |
| 1777594503 | 6.67° C | 54% | 1027.2 hPa | - | - | - | - |
| 1777593903 | 6.67° C | 54% | 1027.2 hPa | - | - | - | - |
| 1777593303 | 6.67° C | 53% | 1027.2 hPa | - | - | - | - |
| 1777592704 | 7.22° C | 53% | 1027.2 hPa | - | - | - | - |
* Rain since midnight (hover to see other rain measurements)
** Current wind speed in m/s (hover to see current wind gust speed)